Home   Weather   Qikiqtarjuaq   Past weeks

Flag for Canada Past Weather in Qikiqtarjuaq, Nunavut, Canada — Yesterday and Last 2 Weeks

Now
36 °F

Passing clouds.


Feels Like: 29 °F
Forecast: 33 / 39 °F
Wind: 8 mph from South

Location: Broughton Island Airport

Current Time: Sep 26, 2016 at 10:05:15 AM

Latest Report: Sep 26, 2016 at 9:00 AM


Visibility: 15 mi

Pressure: 29.99 "Hg

Humidity: 81%

Dew Point: 30 °F

Location of QikiqtarjuaqLocation

Past Weather in Qikiqtarjuaq — Graph

°F

Qikiqtarjuaq Temperature Yesterday

Maximum temperature yesterday: 41 °F (at 1:00 PM)
Minimum temperature yesterday: 30 °F (at 2:00 AM)
Average temperature yesterday: 36 °F

High & Low Weather Summary for the Past Weeks

 TemperatureHumidityPressure
High54 °F (Sep 14, 11:00 AM)100% (Sep 11, 8:00 AM)30.13 "Hg (Sep 11, 8:00 AM)
Low28 °F (Sep 18, 1:00 AM)35% (Sep 14, 12:00 PM)29.39 "Hg (Sep 15, 7:00 AM)
Average37 °F79%29.81 "Hg
* Reported Sep 11 8:00 AM — Sep 26 8:00 AM, Qikiqtarjuaq, Weather by CustomWeather, © 2016

Note: Actual official high and low records may vary slightly from our data, if they occured in-between our weather recording intervals... More about our weather records

Advertising

Qikiqtarjuaq Weather History for the Previous 24 Hours

Scroll right to see more
 ConditionsComfort  
Time TempWeatherWind HumidityBarometerVisibility
8:00 AM
Mon, Sep 26
34 °FScattered clouds.10 mph87%29.99 "Hg15 mi
7:00 AM34 °FScattered clouds.9 mph81%29.99 "Hg15 mi
6:00 AM34 °FPassing clouds.8 mph87%29.99 "Hg15 mi
5:00 AM36 °FOvercast.9 mph81%29.99 "Hg9 mi
4:00 AM36 °FOvercast.5 mph81%30.00 "Hg9 mi
3:00 AM34 °FOvercast.2 mph87%29.99 "Hg9 mi
2:00 AM36 °FOvercast.2 mph87%29.98 "Hg9 mi
1:00 AM36 °FOvercast.No wind87%29.99 "Hg9 mi
12:58 AM36 °FOvercast.No wind87%29.99 "Hg9 mi
12:00 AM36 °FOvercast.5 mph87%29.99 "Hg9 mi
11:00 PM
Sun, Sep 25
36 °FOvercast.6 mph87%29.99 "Hg9 mi
10:00 PM36 °FOvercast.5 mph87%29.99 "Hg9 mi
9:00 PM37 °FOvercast.7 mph81%29.98 "Hg9 mi
8:00 PM37 °FMostly cloudy.12 mph81%29.99 "Hg9 mi
7:00 PM37 °FPassing clouds.15 mph81%29.98 "Hg9 mi
6:54 PM37 °FPassing clouds.13 mph87%29.98 "Hg9 mi
6:00 PM37 °FSunny.18 mph87%29.97 "Hg9 mi
5:00 PM39 °FSunny.25 mph81%29.95 "Hg9 mi
4:00 PM39 °FSunny.18 mph81%29.93 "Hg9 mi
3:00 PM41 °FSunny.16 mph70%29.92 "Hg9 mi
2:00 PM41 °FSunny.15 mph76%29.92 "Hg9 mi
1:00 PM41 °FScattered clouds.3 mph66%29.91 "Hg15 mi
12:00 PM37 °FPassing clouds.No windN/A29.91 "Hg15 mi
11:00 AM37 °FPartly sunny.No wind87%29.92 "Hg15 mi
10:00 AM37 °FPassing clouds.6 mph75%29.94 "Hg15 mi
Weather by CustomWeather, © 2016

See weather overviewHow to use our weather pages